contact:dominique.lefevre@mio.osupytheas.fr, maurice.libes@osupytheas.fr, didier.mallarino@osupytheas.fr
Project:EMSO http://www.emso-fr.org/EMSO-France
Depth: 2436.0 m
Title:EMSO Ligure Ouest : Data MII capteur MICROCAT
DateTime_Computer,Latitude,Longitude,Temperature,Conductivity,Pressure,DateTime_Instrument
DateTime_Computer,Latitude,Longitude,degC,S m-1,dbar,DateTime_Instrument
2023-04-06T00:02:27Z,42.805,6.029,13.3029,4.60103,2470.567,2023-4-06T02:05:19Z
2023-04-06T00:05:30Z,42.805,6.029,13.3031,4.60108,2470.614,2023-4-06T02:08:22Z
2023-04-06T00:08:33Z,42.805,6.029,13.3026,4.60093,2470.6,2023-4-06T02:11:25Z
2023-04-06T00:11:36Z,42.805,6.029,13.3031,4.60107,2470.591,2023-4-06T02:14:28Z
2023-04-06T00:14:39Z,42.805,6.029,13.3029,4.60102,2470.577,2023-4-06T02:17:31Z
2023-04-06T00:17:42Z,42.805,6.029,13.3033,4.60104,2470.637,2023-4-06T02:20:34Z
2023-04-06T00:20:45Z,42.805,6.029,13.3029,4.60110,2470.577,2023-4-06T02:23:37Z
2023-04-06T00:23:49Z,42.805,6.029,13.3024,4.60092,2470.553,2023-4-06T02:26:40Z
2023-04-06T00:26:52Z,42.805,6.029,13.3039,4.60102,2470.553,2023-4-06T02:29:43Z
2023-04-06T00:29:55Z,42.805,6.029,13.3033,4.60107,2470.567,2023-4-06T02:32:46Z
2023-04-06T00:32:58Z,42.805,6.029,13.3027,4.60107,2470.577,2023-4-06T02:35:49Z
2023-04-06T00:36:01Z,42.805,6.029,13.3031,4.60100,2470.591,2023-4-06T02:38:52Z
2023-04-06T00:39:04Z,42.805,6.029,13.3029,4.60106,2470.591,2023-4-06T02:41:55Z
2023-04-06T00:42:07Z,42.805,6.029,13.3025,4.60090,2470.577,2023-4-06T02:44:59Z
2023-04-06T00:45:10Z,42.805,6.029,13.3032,4.60111,2470.591,2023-4-06T02:48:02Z
2023-04-06T00:48:13Z,42.805,6.029,13.3032,4.60093,2470.577,2023-4-06T02:51:05Z
2023-04-06T00:51:16Z,42.805,6.029,13.3037,4.60101,2470.553,2023-4-06T02:54:08Z
2023-04-06T00:54:19Z,42.805,6.029,13.3029,4.60102,2470.53,2023-4-06T02:57:11Z
2023-04-06T00:57:22Z,42.805,6.029,13.3027,4.60092,2470.553,2023-4-06T03:00:14Z
2023-04-06T01:00:25Z,42.805,6.029,13.3031,4.60096,2470.53,2023-4-06T03:03:17Z
2023-04-06T01:03:28Z,42.805,6.029,13.3028,4.60096,2470.553,2023-4-06T03:06:20Z
2023-04-06T01:06:32Z,42.805,6.029,13.3032,4.60099,2470.567,2023-4-06T03:09:23Z
2023-04-06T01:09:35Z,42.805,6.029,13.3033,4.60112,2470.553,2023-4-06T03:12:26Z
2023-04-06T01:12:38Z,42.805,6.029,13.3029,4.60103,2470.53,2023-4-06T03:15:29Z
2023-04-06T01:15:41Z,42.805,6.029,13.3033,4.60102,2470.53,2023-4-06T03:18:32Z
2023-04-06T01:18:44Z,42.805,6.029,13.3031,4.60097,2470.567,2023-4-06T03:21:35Z
2023-04-06T01:21:47Z,42.805,6.029,13.3032,4.60104,2470.553,2023-4-06T03:24:39Z
2023-04-06T01:24:50Z,42.805,6.029,13.3031,4.60102,2470.553,2023-4-06T03:27:42Z
2023-04-06T01:27:53Z,42.805,6.029,13.3028,4.60097,2470.553,2023-4-06T03:30:45Z
2023-04-06T01:30:56Z,42.805,6.029,13.3027,4.60087,2470.591,2023-4-06T03:33:48Z
2023-04-06T01:33:59Z,42.805,6.029,13.3026,4.60097,2470.53,2023-4-06T03:36:51Z
2023-04-06T01:37:02Z,42.805,6.029,13.3031,4.60106,2470.577,2023-4-06T03:39:54Z
2023-04-06T01:40:05Z,42.805,6.029,13.3031,4.60094,2470.577,2023-4-06T03:42:57Z
2023-04-06T01:43:08Z,42.805,6.029,13.3031,4.60102,2470.567,2023-4-06T03:46:00Z
2023-04-06T01:46:12Z,42.805,6.029,13.3031,4.60095,2470.567,2023-4-06T03:49:03Z
2023-04-06T01:49:15Z,42.805,6.029,13.3025,4.60099,2470.544,2023-4-06T03:52:06Z
2023-04-06T01:52:18Z,42.805,6.029,13.3026,4.60108,2470.567,2023-4-06T03:55:09Z
2023-04-06T01:55:21Z,42.805,6.029,13.3028,4.60114,2470.544,2023-4-06T03:58:12Z
2023-04-06T01:58:24Z,42.805,6.029,13.3031,4.60105,2470.567,2023-4-06T04:01:15Z
2023-04-06T02:01:27Z,42.805,6.029,13.3028,4.60100,2470.553,2023-4-06T04:04:18Z
2023-04-06T02:04:30Z,42.805,6.029,13.3036,4.60100,2470.553,2023-4-06T04:07:22Z
2023-04-06T02:07:33Z,42.805,6.029,13.3029,4.60094,2470.577,2023-4-06T04:10:25Z
2023-04-06T02:10:36Z,42.805,6.029,13.3030,4.60113,2470.53,2023-4-06T04:13:28Z
2023-04-06T02:13:39Z,42.805,6.029,13.3037,4.60117,2470.591,2023-4-06T04:16:31Z
2023-04-06T02:16:42Z,42.805,6.029,13.3032,4.60109,2470.553,2023-4-06T04:19:34Z
2023-04-06T02:19:45Z,42.805,6.029,13.3033,4.60118,2470.567,2023-4-06T04:22:37Z
2023-04-06T02:22:48Z,42.805,6.029,13.3036,4.60119,2470.53,2023-4-06T04:25:40Z
2023-04-06T02:25:51Z,42.805,6.029,13.3033,4.60109,2470.53,2023-4-06T04:28:43Z
2023-04-06T02:28:55Z,42.805,6.029,13.3034,4.60104,2470.553,2023-4-06T04:31:46Z
2023-04-06T02:31:58Z,42.805,6.029,13.3033,4.60113,2470.553,2023-4-06T04:34:49Z
2023-04-06T02:35:01Z,42.805,6.029,13.3036,4.60099,2470.567,2023-4-06T04:37:52Z
2023-04-06T02:38:04Z,42.805,6.029,13.3031,4.60094,2470.6,2023-4-06T04:40:55Z
2023-04-06T02:41:07Z,42.805,6.029,13.3034,4.60104,2470.577,2023-4-06T04:43:58Z
2023-04-06T02:44:10Z,42.805,6.029,13.3025,4.60097,2470.567,2023-4-06T04:47:02Z
2023-04-06T02:47:13Z,42.805,6.029,13.3030,4.60097,2470.553,2023-4-06T04:50:05Z
2023-04-06T02:50:16Z,42.805,6.029,13.3032,4.60092,2470.553,2023-4-06T04:53:08Z
2023-04-06T02:53:19Z,42.805,6.029,13.3029,4.60106,2470.577,2023-4-06T04:56:11Z
2023-04-06T02:56:22Z,42.805,6.029,13.3034,4.60097,2470.567,2023-4-06T04:59:14Z
2023-04-06T02:59:25Z,42.805,6.029,13.3036,4.60104,2470.567,2023-4-06T05:02:17Z
2023-04-06T03:02:28Z,42.805,6.029,13.3037,4.60104,2470.6,2023-4-06T05:05:20Z
2023-04-06T03:05:31Z,42.805,6.029,13.3031,4.60100,2470.591,2023-4-06T05:08:23Z
2023-04-06T03:08:35Z,42.805,6.029,13.3034,4.60111,2470.577,2023-4-06T05:11:26Z
2023-04-06T03:11:38Z,42.805,6.029,13.3036,4.60112,2470.591,2023-4-06T05:14:29Z
2023-04-06T03:14:41Z,42.805,6.029,13.3035,4.60111,2470.577,2023-4-06T05:17:32Z
2023-04-06T03:17:44Z,42.805,6.029,13.3031,4.60115,2470.577,2023-4-06T05:20:35Z
2023-04-06T03:20:47Z,42.805,6.029,13.3031,4.60097,2470.553,2023-4-06T05:23:38Z
2023-04-06T03:23:50Z,42.805,6.029,13.3036,4.60112,2470.6,2023-4-06T05:26:42Z
2023-04-06T03:26:53Z,42.805,6.029,13.3035,4.60112,2470.577,2023-4-06T05:29:45Z
2023-04-06T03:29:56Z,42.805,6.029,13.3031,4.60108,2470.614,2023-4-06T05:32:48Z
2023-04-06T03:32:59Z,42.805,6.029,13.3031,4.60102,2470.6,2023-4-06T05:35:51Z
2023-04-06T03:36:02Z,42.805,6.029,13.3034,4.60103,2470.6,2023-4-06T05:38:54Z
2023-04-06T03:39:05Z,42.805,6.029,13.3039,4.60107,2470.6,2023-4-06T05:41:57Z
2023-04-06T03:42:08Z,42.805,6.029,13.3029,4.60097,2470.577,2023-4-06T05:45:00Z
2023-04-06T03:45:11Z,42.805,6.029,13.3032,4.60106,2470.563,2023-4-06T05:48:03Z
2023-04-06T03:48:15Z,42.805,6.029,13.3043,4.60102,2470.577,2023-4-06T05:51:06Z
2023-04-06T03:51:18Z,42.805,6.029,13.3036,4.60106,2470.6,2023-4-06T05:54:09Z
2023-04-06T03:54:21Z,42.805,6.029,13.3032,4.60106,2470.591,2023-4-06T05:57:12Z
2023-04-06T03:57:24Z,42.805,6.029,13.3031,4.60101,2470.614,2023-4-06T06:00:15Z
2023-04-06T04:00:27Z,42.805,6.029,13.3032,4.60095,2470.6,2023-4-06T06:03:18Z
2023-04-06T04:03:30Z,42.805,6.029,13.3031,4.60102,2470.624,2023-4-06T06:06:22Z
2023-04-06T04:06:33Z,42.805,6.029,13.3034,4.60107,2470.661,2023-4-06T06:09:25Z
2023-04-06T04:09:36Z,42.805,6.029,13.3033,4.60092,2470.637,2023-4-06T06:12:28Z
2023-04-06T04:12:39Z,42.805,6.029,13.3030,4.60111,2470.624,2023-4-06T06:15:31Z
2023-04-06T04:15:42Z,42.805,6.029,13.3024,4.60091,2470.637,2023-4-06T06:18:34Z
2023-04-06T04:18:45Z,42.805,6.029,13.3036,4.60098,2470.637,2023-4-06T06:21:37Z
2023-04-06T04:21:48Z,42.805,6.029,13.3035,4.60094,2470.633,2023-4-06T06:24:40Z
2023-04-06T04:24:51Z,42.805,6.029,13.3036,4.60103,2470.646,2023-4-06T06:27:43Z
2023-04-06T04:27:55Z,42.805,6.029,13.3031,4.60104,2470.684,2023-4-06T06:30:46Z
2023-04-06T04:30:58Z,42.805,6.029,13.3035,4.60115,2470.661,2023-4-06T06:33:49Z
2023-04-06T04:34:01Z,42.805,6.029,13.3034,4.60110,2470.67,2023-4-06T06:36:52Z
2023-04-06T04:37:04Z,42.805,6.029,13.3029,4.60093,2470.684,2023-4-06T06:39:55Z
2023-04-06T04:40:07Z,42.805,6.029,13.3033,4.60099,2470.67,2023-4-06T06:42:58Z
2023-04-06T04:43:10Z,42.805,6.029,13.3033,4.60113,2470.661,2023-4-06T06:46:02Z
2023-04-06T04:46:13Z,42.805,6.029,13.3035,4.60096,2470.67,2023-4-06T06:49:05Z
2023-04-06T04:49:16Z,42.805,6.029,13.3031,4.60101,2470.67,2023-4-06T06:52:08Z
2023-04-06T04:52:19Z,42.805,6.029,13.3040,4.60095,2470.73,2023-4-06T06:55:11Z
2023-04-06T04:55:22Z,42.805,6.029,13.3033,4.60100,2470.693,2023-4-06T06:58:14Z
2023-04-06T04:58:25Z,42.805,6.029,13.3039,4.60092,2470.67,2023-4-06T07:01:17Z
2023-04-06T05:01:28Z,42.805,6.029,13.3031,4.60116,2470.693,2023-4-06T07:04:20Z
2023-04-06T05:04:31Z,42.805,6.029,13.3033,4.60101,2470.684,2023-4-06T07:07:23Z
2023-04-06T05:07:34Z,42.805,6.029,13.3036,4.60116,2470.693,2023-4-06T07:10:26Z
2023-04-06T05:10:38Z,42.805,6.029,13.3036,4.60101,2470.67,2023-4-06T07:13:29Z
2023-04-06T05:13:41Z,42.805,6.029,13.3039,4.60098,2470.754,2023-4-06T07:16:32Z
2023-04-06T05:16:44Z,42.805,6.029,13.3036,4.60108,2470.73,2023-4-06T07:19:35Z
2023-04-06T05:19:47Z,42.805,6.029,13.3039,4.60105,2470.73,2023-4-06T07:22:38Z
2023-04-06T05:22:50Z,42.805,6.029,13.3035,4.60104,2470.717,2023-4-06T07:25:42Z
2023-04-06T05:25:53Z,42.805,6.029,13.3040,4.60127,2470.73,2023-4-06T07:28:45Z
2023-04-06T05:28:56Z,42.805,6.029,13.3039,4.60095,2470.693,2023-4-06T07:31:48Z
2023-04-06T05:31:59Z,42.805,6.029,13.3028,4.60097,2470.717,2023-4-06T07:34:51Z
2023-04-06T05:35:02Z,42.805,6.029,13.3039,4.60099,2470.707,2023-4-06T07:37:54Z
2023-04-06T05:38:05Z,42.805,6.029,13.3036,4.60117,2470.717,2023-4-06T07:40:57Z
2023-04-06T05:41:08Z,42.805,6.029,13.3044,4.60089,2470.717,2023-4-06T07:44:00Z
2023-04-06T05:44:11Z,42.805,6.029,13.3033,4.60104,2470.707,2023-4-06T07:47:03Z
2023-04-06T05:47:14Z,42.805,6.029,13.3035,4.60104,2470.763,2023-4-06T07:50:06Z
2023-04-06T05:50:18Z,42.805,6.029,13.3040,4.60097,2470.73,2023-4-06T07:53:09Z
2023-04-06T05:53:21Z,42.805,6.029,13.3033,4.60099,2470.74,2023-4-06T07:56:12Z
2023-04-06T05:56:24Z,42.805,6.029,13.3031,4.60090,2470.763,2023-4-06T07:59:15Z
2023-04-06T05:59:27Z,42.805,6.029,13.3025,4.60103,2470.763,2023-4-06T08:02:18Z
2023-04-06T06:02:30Z,42.805,6.029,13.3031,4.60089,2470.777,2023-4-06T08:05:22Z
2023-04-06T06:05:33Z,42.805,6.029,13.3025,4.60096,2470.74,2023-4-06T08:08:25Z
2023-04-06T06:08:36Z,42.805,6.029,13.3025,4.60084,2470.787,2023-4-06T08:11:28Z
2023-04-06T06:11:39Z,42.805,6.029,13.3024,4.60097,2470.763,2023-4-06T08:14:31Z
2023-04-06T06:14:42Z,42.805,6.029,13.3034,4.60094,2470.777,2023-4-06T08:17:34Z
2023-04-06T06:17:45Z,42.805,6.029,13.3031,4.60085,2470.763,2023-4-06T08:20:37Z
2023-04-06T06:20:48Z,42.805,6.029,13.3032,4.60099,2470.763,2023-4-06T08:23:40Z
2023-04-06T06:23:51Z,42.805,6.029,13.3038,4.60097,2470.8,2023-4-06T08:26:43Z
2023-04-06T06:26:54Z,42.805,6.029,13.3037,4.60084,2470.81,2023-4-06T08:29:46Z
2023-04-06T06:29:58Z,42.805,6.029,13.3026,4.60094,2470.763,2023-4-06T08:32:49Z
2023-04-06T06:33:01Z,42.805,6.029,13.3029,4.60104,2470.74,2023-4-06T08:35:52Z
2023-04-06T06:36:04Z,42.805,6.029,13.3036,4.60111,2470.8,2023-4-06T08:38:55Z
2023-04-06T06:39:07Z,42.805,6.029,13.3043,4.60099,2470.763,2023-4-06T08:41:58Z
2023-04-06T06:42:10Z,42.805,6.029,13.3037,4.60099,2470.763,2023-4-06T08:45:02Z
2023-04-06T06:45:13Z,42.805,6.029,13.3036,4.60097,2470.787,2023-4-06T08:48:05Z
2023-04-06T06:48:16Z,42.805,6.029,13.3036,4.60106,2470.74,2023-4-06T08:51:08Z
2023-04-06T06:51:19Z,42.805,6.029,13.3044,4.60108,2470.787,2023-4-06T08:54:11Z
2023-04-06T06:54:22Z,42.805,6.029,13.3039,4.60123,2470.787,2023-4-06T08:57:14Z
2023-04-06T06:57:25Z,42.805,6.029,13.3046,4.60119,2470.787,2023-4-06T09:00:17Z
2023-04-06T07:00:28Z,42.805,6.029,13.3048,4.60106,2470.763,2023-4-06T09:03:20Z
2023-04-06T07:03:31Z,42.805,6.029,13.3039,4.60102,2470.763,2023-4-06T09:06:23Z
2023-04-06T07:06:34Z,42.805,6.029,13.3032,4.60101,2470.777,2023-4-06T09:09:26Z
2023-04-06T07:09:37Z,42.805,6.029,13.3033,4.60110,2470.787,2023-4-06T09:12:29Z
2023-04-06T07:12:41Z,42.805,6.029,13.3033,4.60101,2470.787,2023-4-06T09:15:32Z
2023-04-06T07:15:44Z,42.805,6.029,13.3036,4.60118,2470.8,2023-4-06T09:18:35Z
2023-04-06T07:18:47Z,42.805,6.029,13.3038,4.60110,2470.8,2023-4-06T09:21:38Z
2023-04-06T07:21:50Z,42.805,6.029,13.3034,4.60124,2470.787,2023-4-06T09:24:42Z
2023-04-06T07:24:53Z,42.805,6.029,13.3049,4.60104,2470.74,2023-4-06T09:27:45Z
2023-04-06T07:27:56Z,42.805,6.029,13.3034,4.60090,2470.787,2023-4-06T09:30:48Z
2023-04-06T07:30:59Z,42.805,6.029,13.3039,4.60104,2470.74,2023-4-06T09:33:51Z
2023-04-06T07:34:02Z,42.805,6.029,13.3041,4.60130,2470.763,2023-4-06T09:36:54Z
2023-04-06T07:37:05Z,42.805,6.029,13.3036,4.60130,2470.763,2023-4-06T09:39:57Z
2023-04-06T07:40:08Z,42.805,6.029,13.3045,4.60098,2470.763,2023-4-06T09:43:00Z
2023-04-06T07:43:11Z,42.805,6.029,13.3035,4.60126,2470.763,2023-4-06T09:46:03Z
2023-04-06T07:46:14Z,42.805,6.029,13.3027,4.60122,2470.763,2023-4-06T09:49:06Z
2023-04-06T07:49:17Z,42.805,6.029,13.3036,4.60108,2470.74,2023-4-06T09:52:09Z
2023-04-06T07:52:21Z,42.805,6.029,13.3046,4.60110,2470.8,2023-4-06T09:55:12Z
2023-04-06T07:55:24Z,42.805,6.029,13.3041,4.60098,2470.8,2023-4-06T09:58:15Z
2023-04-06T07:58:27Z,42.805,6.029,13.3032,4.60119,2470.777,2023-4-06T10:01:18Z
2023-04-06T08:01:30Z,42.805,6.029,13.3039,4.60092,2470.763,2023-4-06T10:04:21Z
2023-04-06T08:04:33Z,42.805,6.029,13.3051,4.60108,2470.763,2023-4-06T10:07:25Z
2023-04-06T08:07:36Z,42.805,6.029,13.3036,4.60105,2470.763,2023-4-06T10:10:28Z
2023-04-06T08:10:39Z,42.805,6.029,13.3043,4.60089,2470.74,2023-4-06T10:13:31Z
2023-04-06T08:13:42Z,42.805,6.029,13.3042,4.60114,2470.763,2023-4-06T10:16:34Z
2023-04-06T08:16:45Z,42.805,6.029,13.3030,4.60112,2470.754,2023-4-06T10:19:37Z
2023-04-06T08:19:48Z,42.805,6.029,13.3040,4.60132,2470.763,2023-4-06T10:22:40Z
2023-04-06T08:22:51Z,42.805,6.029,13.3054,4.60147,2470.754,2023-4-06T10:25:43Z
2023-04-06T08:25:54Z,42.805,6.029,13.3037,4.60108,2470.717,2023-4-06T10:28:46Z
2023-04-06T08:28:57Z,42.805,6.029,13.3027,4.60099,2470.74,2023-4-06T10:31:49Z
2023-04-06T08:32:00Z,42.805,6.029,13.3036,4.60110,2470.754,2023-4-06T10:34:52Z
2023-04-06T08:35:03Z,42.805,6.029,13.3032,4.60087,2470.763,2023-4-06T10:37:55Z
2023-04-06T08:38:06Z,42.805,6.029,13.3036,4.60098,2470.754,2023-4-06T10:40:58Z
2023-04-06T08:41:09Z,42.805,6.029,13.3033,4.60110,2470.717,2023-4-06T10:44:01Z
2023-04-06T08:44:12Z,42.805,6.029,13.3042,4.60134,2470.717,2023-4-06T10:47:04Z
2023-04-06T08:47:15Z,42.805,6.029,13.3043,4.60097,2470.763,2023-4-06T10:50:07Z
2023-04-06T08:50:18Z,42.805,6.029,13.3031,4.60116,2470.74,2023-4-06T10:53:10Z
2023-04-06T08:53:21Z,42.805,6.029,13.3034,4.60120,2470.717,2023-4-06T10:56:13Z
2023-04-06T08:56:24Z,42.805,6.029,13.3041,4.60129,2470.74,2023-4-06T10:59:16Z
2023-04-06T08:59:28Z,42.805,6.029,13.3039,4.60099,2470.74,2023-4-06T11:02:19Z
2023-04-06T09:02:31Z,42.805,6.029,13.3035,4.60100,2470.74,2023-4-06T11:05:22Z
2023-04-06T09:05:34Z,42.805,6.029,13.3036,4.60105,2470.74,2023-4-06T11:08:25Z
2023-04-06T09:08:37Z,42.805,6.029,13.3051,4.60116,2470.74,2023-4-06T11:11:29Z
2023-04-06T09:11:40Z,42.805,6.029,13.3041,4.60111,2470.717,2023-4-06T11:14:32Z
2023-04-06T09:14:43Z,42.805,6.029,13.3036,4.60115,2470.717,2023-4-06T11:17:35Z
2023-04-06T09:17:46Z,42.805,6.029,13.3039,4.60107,2470.754,2023-4-06T11:20:38Z
2023-04-06T09:20:49Z,42.805,6.029,13.3045,4.60104,2470.717,2023-4-06T11:23:41Z
2023-04-06T09:23:52Z,42.805,6.029,13.3042,4.60125,2470.693,2023-4-06T11:26:44Z
2023-04-06T09:26:55Z,42.805,6.029,13.3044,4.60097,2470.707,2023-4-06T11:29:47Z
2023-04-06T09:29:58Z,42.805,6.029,13.3048,4.60150,2470.717,2023-4-06T11:32:50Z
2023-04-06T09:33:01Z,42.805,6.029,13.3041,4.60118,2470.73,2023-4-06T11:35:53Z
2023-04-06T09:36:04Z,42.805,6.029,13.3046,4.60106,2470.74,2023-4-06T11:38:56Z
2023-04-06T09:39:08Z,42.805,6.029,13.3048,4.60128,2470.693,2023-4-06T11:41:59Z
2023-04-06T09:42:11Z,42.805,6.029,13.3048,4.60117,2470.707,2023-4-06T11:45:02Z
2023-04-06T09:45:14Z,42.805,6.029,13.3051,4.60129,2470.717,2023-4-06T11:48:06Z
2023-04-06T09:48:17Z,42.805,6.029,13.3046,4.60103,2470.717,2023-4-06T11:51:09Z
2023-04-06T09:51:20Z,42.805,6.029,13.3033,4.60122,2470.707,2023-4-06T11:54:12Z
2023-04-06T09:54:23Z,42.805,6.029,13.3041,4.60096,2470.67,2023-4-06T11:57:15Z
2023-04-06T09:57:26Z,42.805,6.029,13.3043,4.60149,2470.707,2023-4-06T12:00:18Z
2023-04-06T10:00:29Z,42.805,6.029,13.3054,4.60147,2470.684,2023-4-06T12:03:21Z
2023-04-06T10:03:32Z,42.805,6.029,13.3048,4.60142,2470.693,2023-4-06T12:06:24Z
2023-04-06T10:06:35Z,42.805,6.029,13.3053,4.60122,2470.67,2023-4-06T12:09:27Z
2023-04-06T10:09:38Z,42.805,6.029,13.3043,4.60117,2470.693,2023-4-06T12:12:30Z
2023-04-06T10:12:41Z,42.805,6.029,13.3036,4.60120,2470.707,2023-4-06T12:15:33Z
2023-04-06T10:15:45Z,42.805,6.029,13.3047,4.60117,2470.684,2023-4-06T12:18:36Z
2023-04-06T10:18:48Z,42.805,6.029,13.3046,4.60127,2470.67,2023-4-06T12:21:39Z
2023-04-06T10:21:51Z,42.805,6.029,13.3038,4.60121,2470.661,2023-4-06T12:24:42Z
2023-04-06T10:24:54Z,42.805,6.029,13.3055,4.60131,2470.67,2023-4-06T12:27:45Z
2023-04-06T10:27:57Z,42.805,6.029,13.3052,4.60093,2470.67,2023-4-06T12:30:49Z
2023-04-06T10:30:58Z,42.805,6.029,13.3036,4.60122,2470.646,2023-4-06T12:33:50Z
2023-04-06T10:34:02Z,42.805,6.029,13.3034,4.60122,2470.646,2023-4-06T12:36:53Z
2023-04-06T10:37:05Z,42.805,6.029,13.3038,4.60114,2470.684,2023-4-06T12:39:56Z
2023-04-06T10:40:08Z,42.805,6.029,13.3037,4.60134,2470.67,2023-4-06T12:42:59Z
2023-04-06T10:43:11Z,42.805,6.029,13.3042,4.60137,2470.67,2023-4-06T12:46:03Z
2023-04-06T10:46:14Z,42.805,6.029,13.3041,4.60155,2470.661,2023-4-06T12:49:06Z
2023-04-06T10:49:17Z,42.805,6.029,13.3053,4.60148,2470.684,2023-4-06T12:52:09Z
2023-04-06T10:52:20Z,42.805,6.029,13.3040,4.60142,2470.646,2023-4-06T12:55:12Z
2023-04-06T10:55:23Z,42.805,6.029,13.3031,4.60127,2470.646,2023-4-06T12:58:15Z
2023-04-06T10:58:26Z,42.805,6.029,13.3042,4.60129,2470.646,2023-4-06T13:01:18Z
2023-04-06T11:01:29Z,42.805,6.029,13.3056,4.60129,2470.661,2023-4-06T13:04:21Z
2023-04-06T11:04:32Z,42.805,6.029,13.3040,4.60137,2470.684,2023-4-06T13:07:24Z
2023-04-06T11:07:35Z,42.805,6.029,13.3045,4.60132,2470.661,2023-4-06T13:10:27Z
2023-04-06T11:10:38Z,42.805,6.029,13.3042,4.60141,2470.637,2023-4-06T13:13:30Z
2023-04-06T11:13:42Z,42.805,6.029,13.3031,4.60122,2470.624,2023-4-06T13:16:33Z
2023-04-06T11:16:45Z,42.805,6.029,13.3044,4.60125,2470.661,2023-4-06T13:19:36Z
2023-04-06T11:19:48Z,42.805,6.029,13.3042,4.60147,2470.624,2023-4-06T13:22:40Z
2023-04-06T11:22:51Z,42.805,6.029,13.3030,4.60112,2470.646,2023-4-06T13:25:43Z
2023-04-06T11:25:54Z,42.805,6.029,13.3031,4.60102,2470.637,2023-4-06T13:28:46Z
2023-04-06T11:28:57Z,42.805,6.029,13.3028,4.60098,2470.637,2023-4-06T13:31:49Z
2023-04-06T11:32:00Z,42.805,6.029,13.3043,4.60133,2470.6,2023-4-06T13:34:52Z
2023-04-06T11:35:03Z,42.805,6.029,13.3061,4.60130,2470.624,2023-4-06T13:37:55Z
2023-04-06T11:38:06Z,42.805,6.029,13.3054,4.60135,2470.614,2023-4-06T13:40:58Z
2023-04-06T11:41:09Z,42.805,6.029,13.3034,4.60131,2470.651,2023-4-06T13:44:01Z
2023-04-06T11:44:12Z,42.805,6.029,13.3037,4.60127,2470.624,2023-4-06T13:47:04Z
2023-04-06T11:47:15Z,42.805,6.029,13.3036,4.60140,2470.614,2023-4-06T13:50:07Z
2023-04-06T11:50:19Z,42.805,6.029,13.3048,4.60135,2470.624,2023-4-06T13:53:10Z
2023-04-06T11:53:22Z,42.805,6.029,13.3039,4.60120,2470.614,2023-4-06T13:56:13Z
2023-04-06T11:56:25Z,42.805,6.029,13.3036,4.60127,2470.624,2023-4-06T13:59:17Z
2023-04-06T11:59:28Z,42.805,6.029,13.3034,4.60099,2470.6,2023-4-06T14:02:20Z
2023-04-06T12:02:31Z,42.805,6.029,13.3031,4.60091,2470.637,2023-4-06T14:05:23Z
2023-04-06T12:05:34Z,42.805,6.029,13.3024,4.60096,2470.591,2023-4-06T14:08:26Z
2023-04-06T12:08:37Z,42.805,6.029,13.3030,4.60113,2470.624,2023-4-06T14:11:29Z
2023-04-06T12:11:40Z,42.805,6.029,13.3043,4.60120,2470.577,2023-4-06T14:14:32Z
2023-04-06T12:14:43Z,42.805,6.029,13.3034,4.60119,2470.624,2023-4-06T14:17:35Z
2023-04-06T12:17:46Z,42.805,6.029,13.3048,4.60119,2470.577,2023-4-06T14:20:38Z
2023-04-06T12:20:49Z,42.805,6.029,13.3051,4.60129,2470.6,2023-4-06T14:23:41Z
2023-04-06T12:23:52Z,42.805,6.029,13.3028,4.60112,2470.614,2023-4-06T14:26:44Z
2023-04-06T12:26:56Z,42.805,6.029,13.3031,4.60097,2470.553,2023-4-06T14:29:47Z
2023-04-06T12:29:59Z,42.805,6.029,13.3029,4.60099,2470.6,2023-4-06T14:32:50Z
2023-04-06T12:33:02Z,42.805,6.029,13.3026,4.60092,2470.591,2023-4-06T14:35:54Z
2023-04-06T12:36:05Z,42.805,6.029,13.3029,4.60096,2470.577,2023-4-06T14:38:57Z
2023-04-06T12:39:08Z,42.805,6.029,13.3027,4.60112,2470.577,2023-4-06T14:42:00Z
2023-04-06T12:42:11Z,42.805,6.029,13.3037,4.60112,2470.6,2023-4-06T14:45:03Z
2023-04-06T12:45:14Z,42.805,6.029,13.3031,4.60099,2470.591,2023-4-06T14:48:06Z
2023-04-06T12:48:17Z,42.805,6.029,13.3037,4.60111,2470.553,2023-4-06T14:51:09Z
2023-04-06T12:51:20Z,42.805,6.029,13.3041,4.60125,2470.577,2023-4-06T14:54:12Z
2023-04-06T12:54:23Z,42.805,6.029,13.3032,4.60111,2470.553,2023-4-06T14:57:15Z
2023-04-06T12:57:26Z,42.805,6.029,13.3032,4.60119,2470.591,2023-4-06T15:00:18Z
2023-04-06T13:00:29Z,42.805,6.029,13.3031,4.60106,2470.577,2023-4-06T15:03:21Z
2023-04-06T13:03:32Z,42.805,6.029,13.3026,4.60097,2470.591,2023-4-06T15:06:24Z
2023-04-06T13:06:36Z,42.805,6.029,13.3027,4.60095,2470.577,2023-4-06T15:09:27Z
2023-04-06T13:09:39Z,42.805,6.029,13.3033,4.60106,2470.591,2023-4-06T15:12:30Z
2023-04-06T13:12:42Z,42.805,6.029,13.3031,4.60101,2470.6,2023-4-06T15:15:34Z
2023-04-06T13:15:45Z,42.805,6.029,13.3037,4.60102,2470.53,2023-4-06T15:18:37Z
2023-04-06T13:18:48Z,42.805,6.029,13.3027,4.60101,2470.553,2023-4-06T15:21:40Z
2023-04-06T13:21:51Z,42.805,6.029,13.3022,4.60090,2470.553,2023-4-06T15:24:43Z
2023-04-06T13:24:54Z,42.805,6.029,13.3031,4.60107,2470.553,2023-4-06T15:27:46Z
2023-04-06T13:27:57Z,42.805,6.029,13.3032,4.60098,2470.553,2023-4-06T15:30:49Z
2023-04-06T13:31:00Z,42.805,6.029,13.3026,4.60096,2470.544,2023-4-06T15:33:52Z
2023-04-06T13:34:03Z,42.805,6.029,13.3036,4.60102,2470.553,2023-4-06T15:36:55Z
2023-04-06T13:37:06Z,42.805,6.029,13.3028,4.60096,2470.544,2023-4-06T15:39:58Z
2023-04-06T13:40:09Z,42.805,6.029,13.3034,4.60098,2470.553,2023-4-06T15:43:01Z
2023-04-06T13:43:12Z,42.805,6.029,13.3024,4.60091,2470.577,2023-4-06T15:46:04Z
2023-04-06T13:46:16Z,42.805,6.029,13.3026,4.60093,2470.553,2023-4-06T15:49:07Z
2023-04-06T13:49:19Z,42.805,6.029,13.3022,4.60092,2470.567,2023-4-06T15:52:11Z
2023-04-06T13:52:22Z,42.805,6.029,13.3025,4.60097,2470.567,2023-4-06T15:55:14Z
2023-04-06T13:55:25Z,42.805,6.029,13.3029,4.60104,2470.567,2023-4-06T15:58:17Z
2023-04-06T13:58:28Z,42.805,6.029,13.3028,4.60092,2470.53,2023-4-06T16:01:20Z
2023-04-06T14:01:31Z,42.805,6.029,13.3029,4.60090,2470.507,2023-4-06T16:04:23Z
2023-04-06T14:04:34Z,42.805,6.029,13.3029,4.60102,2470.53,2023-4-06T16:07:26Z
2023-04-06T14:07:37Z,42.805,6.029,13.3028,4.60097,2470.553,2023-4-06T16:10:29Z
2023-04-06T14:10:40Z,42.805,6.029,13.3026,4.60092,2470.567,2023-4-06T16:13:32Z
2023-04-06T14:13:43Z,42.805,6.029,13.3024,4.60090,2470.53,2023-4-06T16:16:35Z
2023-04-06T14:16:46Z,42.805,6.029,13.3029,4.60096,2470.553,2023-4-06T16:19:38Z
2023-04-06T14:19:49Z,42.805,6.029,13.3033,4.60092,2470.53,2023-4-06T16:22:41Z
2023-04-06T14:22:53Z,42.805,6.029,13.3029,4.60094,2470.53,2023-4-06T16:25:44Z
2023-04-06T14:25:56Z,42.805,6.029,13.3026,4.60092,2470.544,2023-4-06T16:28:47Z
2023-04-06T14:28:59Z,42.805,6.029,13.3027,4.60104,2470.567,2023-4-06T16:31:51Z
2023-04-06T14:32:02Z,42.805,6.029,13.3027,4.60099,2470.553,2023-4-06T16:34:54Z
2023-04-06T14:35:05Z,42.805,6.029,13.3031,4.60099,2470.591,2023-4-06T16:37:57Z
2023-04-06T14:38:08Z,42.805,6.029,13.3024,4.60094,2470.53,2023-4-06T16:41:00Z
2023-04-06T14:41:12Z,42.805,6.029,13.3027,4.60092,2470.544,2023-4-06T16:44:03Z
2023-04-06T14:44:15Z,42.805,6.029,13.3027,4.60093,2470.544,2023-4-06T16:47:06Z
2023-04-06T14:47:18Z,42.805,6.029,13.3025,4.60096,2470.553,2023-4-06T16:50:10Z
2023-04-06T14:50:21Z,42.805,6.029,13.3028,4.60094,2470.53,2023-4-06T16:53:13Z
2023-04-06T14:53:24Z,42.805,6.029,13.3023,4.60089,2470.553,2023-4-06T16:56:16Z
2023-04-06T14:56:27Z,42.805,6.029,13.3029,4.60095,2470.544,2023-4-06T16:59:19Z
2023-04-06T14:59:30Z,42.805,6.029,13.3025,4.60091,2470.567,2023-4-06T17:02:22Z
2023-04-06T15:02:33Z,42.805,6.029,13.3028,4.60099,2470.53,2023-4-06T17:05:25Z
2023-04-06T15:05:36Z,42.805,6.029,13.3021,4.60090,2470.567,2023-4-06T17:08:28Z
2023-04-06T15:08:39Z,42.805,6.029,13.3024,4.60088,2470.53,2023-4-06T17:11:31Z
2023-04-06T15:11:42Z,42.805,6.029,13.3026,4.60092,2470.553,2023-4-06T17:14:34Z
2023-04-06T15:14:45Z,42.805,6.029,13.3029,4.60092,2470.553,2023-4-06T17:17:37Z